DELTA 1 DEB, 21498

Orbit data source: Space-Track

DELTA 1 DEB, 21498 is space debris in SSO originally from a launch on Thu, 12 Jun 1975 UTC launched from the Air Force Western Test Range (AFWTR). Debris objects in space refer to the collection of defunct objects orbiting the Earth. Examples of debris include non-operational satellites, rocket bodies, and fragments generated from explosions, collisions, or faulty payload assembly.

Loading next visibility...
Identifier
21498, 1975-052FT
Orbit
SSO
Country
Flag of USUS
Related business
Manufacturer
Unknown
Mission
Spacecraft
Bus & Motor
Unknown
Mass
Unknown
Launch date (UTC)
1975-06-12 (51 years ago)
Launch vehicle
Unknown
Launch site
Air Force Western Test Range (AFWTR)
Object type
Payload
Rocket body
Debris
Shape & HBR
Unknown shape, 0.1 m
Radar Cross Section
Small (<0.1 m²)

Expand to show TLE details & history
Last TLE update: 22 hours ago

TLE from 22 hours ago
0 DELTA 1 DEB
1 21498U 75052FT  25349.29502630  .00000427  00000-0  14082-2 0  9993
2 21498  99.7053 281.5788 0262495 115.8693  47.8090 12.95159626632330
Epoch: 2025-12-15T07:04Z
TLE epoch observation values (Epoch: 2025-12-15T07:04:50.272Z)
Latitude
13.80944°
Longitude
-86.4293°
Altitude
1,151.02 km
Speed
7.341 km/s
True Right ascension
06h 55m 54s
True Declination
13° 44' 03"
Sunlit
Object was in full shadow at epoch
Visualization orbit readout
Latitude
Unknown
Longitude
Unknown
Altitude
Unknown
Speed
Unknown
Apparent Right ascension
Unknown
Apparent Declination
Unknown
Sunlit
N/A
Visualization observer readout
Local Sidereal Time
03:26:42
Azimuth
Unknown
Elevation
Unknown
Doppler factor
Unknown
Orbital elements
Apogee altitude
1,479.469 km
Perigee altitude
1,077.504 km
Semi-major axis
7,656.624 km
Eccentricity
0.02625
Inclination
99.7053°
RAAN
281.5788°
Arg. of periapsis
115.8693°
True anomaly
50.08721°
Mean anomaly
47.809°
Eccentric anomaly
48.94309°
Mean motion
3.23957 °/min
Orbital period
111.13 mins
BSTAR
0.0014082
Loading maneuver chart data...
Computing Atmospheric mass density...
Loading historical data...
Loading historical data...
Loading historical data...
Loading historical data...
Loading historical data...
Loading historical data...
Loading historical data...

Documentation

Showing up to 5 results
|